Location: Mauries
(43.6188°N, 0.3322°W)
Time: 19:38:15
(UTC+00:00)

Molniya-1 - Pass Details

Date: 14 January 2026
Orbit: 368 x 13507 km, 62.9° (Epoch: 11 February)

Event Time Altitude Azimuth Distance (km) Brightness Sun altitude
Rises 06:45:56 0° 212° (SSW) 2,203 6.3 -8.4°
Reaches altitude 10° 06:47:29 10° 210° (SSW) 1,411 5.3 -8.1°
Maximum altitude 06:50:04 76° 124° (SE) 520 3.4 -7.7°
Drops below altitude 10° 06:55:09 10° 39° (NE) 2,742 7.1 -6.9°
Sets 06:59:25 0° 39° (NE) 4,790 8.3 -6.1°
